Year,Month,Day,Hour,Minute,Value (Times are PST for temperature in C)
2010,06,18,00,00,9.70
2010,06,18,00,01,9.70
2010,06,18,00,02,9.70
2010,06,18,00,03,9.70
2010,06,18,00,04,9.70
2010,06,18,00,05,9.70
2010,06,18,00,06,9.70
2010,06,18,00,07,9.80
2010,06,18,00,08,9.80
2010,06,18,00,09,9.80
2010,06,18,00,10,9.80
2010,06,18,00,11,9.80
2010,06,18,00,12,9.70
2010,06,18,00,13,9.70
2010,06,18,00,14,9.70
2010,06,18,00,15,9.70
2010,06,18,00,16,9.70
2010,06,18,00,17,9.60
2010,06,18,00,18,9.60
2010,06,18,00,19,9.60
2010,06,18,00,20,9.60
2010,06,18,00,21,9.60
2010,06,18,00,22,9.60
2010,06,18,00,23,9.50
2010,06,18,00,24,9.50
2010,06,18,00,25,9.50
2010,06,18,00,26,9.50
2010,06,18,00,27,9.50
2010,06,18,00,28,9.50
2010,06,18,00,29,9.50
2010,06,18,00,30,9.50
2010,06,18,00,31,9.50
2010,06,18,00,32,9.50
2010,06,18,00,33,9.60
2010,06,18,00,34,9.60
2010,06,18,00,35,9.60
2010,06,18,00,36,9.60
2010,06,18,00,37,9.50
2010,06,18,00,38,9.50
2010,06,18,00,39,9.50
2010,06,18,00,40,9.40
2010,06,18,00,41,9.40
2010,06,18,00,42,9.40
2010,06,18,00,43,9.30
2010,06,18,00,44,9.30
2010,06,18,00,45,9.30
2010,06,18,00,46,9.30
2010,06,18,00,47,9.30
2010,06,18,00,48,9.30
2010,06,18,00,49,9.40
2010,06,18,00,50,9.40
2010,06,18,00,51,9.40
2010,06,18,00,52,9.40
2010,06,18,00,53,9.40
2010,06,18,00,54,9.40
2010,06,18,00,55,9.40
2010,06,18,00,56,9.40
2010,06,18,00,57,9.40
2010,06,18,00,58,9.40
2010,06,18,00,59,9.40
2010,06,18,01,00,9.40
2010,06,18,01,01,9.40
2010,06,18,01,02,9.40
2010,06,18,01,03,9.40
2010,06,18,01,04,9.40
2010,06,18,01,05,9.40
2010,06,18,01,06,9.40
2010,06,18,01,07,9.40
2010,06,18,01,08,9.40
2010,06,18,01,09,9.40
2010,06,18,01,10,9.40
2010,06,18,01,11,9.40
2010,06,18,01,12,9.40
2010,06,18,01,13,9.40
2010,06,18,01,14,9.40
2010,06,18,01,15,9.40
2010,06,18,01,16,9.40
2010,06,18,01,17,9.40
2010,06,18,01,18,9.50
2010,06,18,01,19,9.50
2010,06,18,01,20,9.50
2010,06,18,01,21,9.40
2010,06,18,01,22,9.40
2010,06,18,01,23,9.40
2010,06,18,01,24,9.40
2010,06,18,01,25,9.40
2010,06,18,01,26,9.40
2010,06,18,01,27,9.40
2010,06,18,01,28,9.40
2010,06,18,01,29,9.40
2010,06,18,01,30,9.40
2010,06,18,01,31,9.40
2010,06,18,01,32,9.40
2010,06,18,01,33,9.40
2010,06,18,01,34,9.40
2010,06,18,01,35,9.50
2010,06,18,01,36,9.50
2010,06,18,01,37,9.60
2010,06,18,01,38,9.60
2010,06,18,01,39,9.60
2010,06,18,01,40,9.60
2010,06,18,01,41,9.60
2010,06,18,01,42,9.60
2010,06,18,01,43,9.60
2010,06,18,01,44,9.60
2010,06,18,01,45,9.60
2010,06,18,01,46,9.60
2010,06,18,01,47,9.60
2010,06,18,01,48,9.60
2010,06,18,01,49,9.60
2010,06,18,01,50,9.70
2010,06,18,01,51,9.70
2010,06,18,01,52,9.70
2010,06,18,01,53,9.70
2010,06,18,01,54,9.70
2010,06,18,01,55,9.70
2010,06,18,01,56,9.80
2010,06,18,01,57,9.80
2010,06,18,01,58,9.80
2010,06,18,01,59,9.80
2010,06,18,02,00,9.80
2010,06,18,02,01,9.80
2010,06,18,02,02,9.80
2010,06,18,02,03,9.80
2010,06,18,02,04,9.80
2010,06,18,02,05,9.80
2010,06,18,02,06,9.80
2010,06,18,02,07,9.90
2010,06,18,02,08,9.90
2010,06,18,02,09,9.90
2010,06,18,02,10,9.90
2010,06,18,02,11,9.90
2010,06,18,02,12,9.90
2010,06,18,02,13,9.90
2010,06,18,02,14,10.00
2010,06,18,02,15,10.00
2010,06,18,02,16,10.00
2010,06,18,02,17,10.00
2010,06,18,02,18,10.00
2010,06,18,02,19,10.10
2010,06,18,02,20,10.10
2010,06,18,02,21,10.00
2010,06,18,02,22,10.10
2010,06,18,02,23,10.00
2010,06,18,02,24,10.10
2010,06,18,02,25,10.10
2010,06,18,02,26,10.10
2010,06,18,02,27,10.10
2010,06,18,02,28,10.10
2010,06,18,02,29,10.10
2010,06,18,02,30,10.10
2010,06,18,02,31,10.10
2010,06,18,02,32,10.10
2010,06,18,02,33,10.10
2010,06,18,02,34,10.20
2010,06,18,02,35,10.20
2010,06,18,02,36,10.20
2010,06,18,02,37,10.20
2010,06,18,02,38,10.20
2010,06,18,02,39,10.20
2010,06,18,02,40,10.20
2010,06,18,02,41,10.20
2010,06,18,02,42,10.20
2010,06,18,02,43,10.30
2010,06,18,02,44,10.30
2010,06,18,02,45,10.30
2010,06,18,02,46,10.30
2010,06,18,02,47,10.30
2010,06,18,02,48,10.30
2010,06,18,02,49,10.30
2010,06,18,02,50,10.30
2010,06,18,02,51,10.30
2010,06,18,02,52,10.30
2010,06,18,02,53,10.40
2010,06,18,02,54,10.40
2010,06,18,02,55,10.40
2010,06,18,02,56,10.40
2010,06,18,02,57,10.40
2010,06,18,02,58,10.40
2010,06,18,02,59,10.40
2010,06,18,03,00,10.40
2010,06,18,03,01,10.40
2010,06,18,03,02,10.40
2010,06,18,03,03,10.40
2010,06,18,03,04,10.40
2010,06,18,03,05,10.40
2010,06,18,03,06,10.40
2010,06,18,03,07,10.40
2010,06,18,03,08,10.40
2010,06,18,03,09,10.40
2010,06,18,03,10,10.40
2010,06,18,03,11,10.40
2010,06,18,03,12,10.50
2010,06,18,03,13,10.50
2010,06,18,03,14,10.60
2010,06,18,03,15,10.60
2010,06,18,03,16,10.60
2010,06,18,03,17,10.60
2010,06,18,03,18,10.60
2010,06,18,03,19,10.60
2010,06,18,03,20,10.60
2010,06,18,03,21,10.60
2010,06,18,03,22,10.60
2010,06,18,03,23,10.60
2010,06,18,03,24,10.70
2010,06,18,03,25,10.70
2010,06,18,03,26,10.70
2010,06,18,03,27,10.70
2010,06,18,03,28,10.70
2010,06,18,03,29,10.70
2010,06,18,03,30,10.70
2010,06,18,03,31,10.70
2010,06,18,03,32,10.70
2010,06,18,03,33,10.70
2010,06,18,03,34,10.70
2010,06,18,03,35,10.70
2010,06,18,03,36,10.70
2010,06,18,03,37,10.70
2010,06,18,03,38,10.70
2010,06,18,03,39,10.70
2010,06,18,03,40,10.70
2010,06,18,03,41,10.70
2010,06,18,03,42,10.70
2010,06,18,03,43,10.80
2010,06,18,03,44,10.80
2010,06,18,03,45,10.80
2010,06,18,03,46,10.80
2010,06,18,03,47,10.80
2010,06,18,03,48,10.80
2010,06,18,03,49,10.80
2010,06,18,03,50,10.80
2010,06,18,03,51,10.80
2010,06,18,03,52,10.80
2010,06,18,03,53,10.80
2010,06,18,03,54,10.80
2010,06,18,03,55,10.80
2010,06,18,03,56,10.80
2010,06,18,03,57,10.80
2010,06,18,03,58,10.80
2010,06,18,03,59,10.90
2010,06,18,04,00,10.90
2010,06,18,04,01,10.90
2010,06,18,04,02,10.90
2010,06,18,04,03,10.90
2010,06,18,04,04,10.90
2010,06,18,04,05,10.90
2010,06,18,04,06,10.90
2010,06,18,04,07,10.90
2010,06,18,04,08,10.90
2010,06,18,04,09,10.90
2010,06,18,04,10,10.90
2010,06,18,04,11,10.90
2010,06,18,04,12,10.90
2010,06,18,04,13,10.90
2010,06,18,04,14,10.90
2010,06,18,04,15,10.90
2010,06,18,04,16,10.90
2010,06,18,04,17,10.90
2010,06,18,04,18,10.90
2010,06,18,04,19,10.90
2010,06,18,04,20,10.90
2010,06,18,04,21,11.00
2010,06,18,04,22,11.00
2010,06,18,04,23,11.00
2010,06,18,04,24,11.00
2010,06,18,04,25,11.00
2010,06,18,04,26,11.00
2010,06,18,04,27,11.00
2010,06,18,04,28,11.00
2010,06,18,04,29,11.00
2010,06,18,04,30,11.00
2010,06,18,04,31,11.00
2010,06,18,04,32,11.00
2010,06,18,04,33,11.00
2010,06,18,04,34,11.00
2010,06,18,04,35,11.00
2010,06,18,04,36,11.00
2010,06,18,04,37,11.00
2010,06,18,04,38,11.10
2010,06,18,04,39,11.10
2010,06,18,04,40,11.10
2010,06,18,04,41,11.10
2010,06,18,04,42,11.10
2010,06,18,04,43,11.10
2010,06,18,04,44,11.10
2010,06,18,04,45,11.10
2010,06,18,04,46,11.10
2010,06,18,04,47,11.10
2010,06,18,04,48,11.10
2010,06,18,04,49,11.10
2010,06,18,04,50,11.10
2010,06,18,04,51,11.10
2010,06,18,04,52,11.10
2010,06,18,04,53,11.20
2010,06,18,04,54,11.20
2010,06,18,04,55,11.20
2010,06,18,04,56,11.20
2010,06,18,04,57,11.20
2010,06,18,04,58,11.20
2010,06,18,04,59,11.20
2010,06,18,05,00,11.20
2010,06,18,05,01,11.20
2010,06,18,05,02,11.20
2010,06,18,05,03,11.20
2010,06,18,05,04,11.20
2010,06,18,05,05,11.20
2010,06,18,05,06,11.10
2010,06,18,05,07,11.10
2010,06,18,05,08,11.10
2010,06,18,05,09,11.10
2010,06,18,05,10,11.10
2010,06,18,05,11,11.10
2010,06,18,05,12,11.10
2010,06,18,05,13,11.10
2010,06,18,05,14,11.10
2010,06,18,05,15,11.10
2010,06,18,05,16,11.10
2010,06,18,05,17,11.10
2010,06,18,05,18,11.10
2010,06,18,05,19,11.10
2010,06,18,05,20,11.10
2010,06,18,05,21,11.10
2010,06,18,05,22,11.10
2010,06,18,05,23,11.10
2010,06,18,05,24,11.10
2010,06,18,05,25,11.10
2010,06,18,05,26,11.10
2010,06,18,05,27,11.10
2010,06,18,05,28,11.10
2010,06,18,05,29,11.10
2010,06,18,05,30,11.20
2010,06,18,05,31,11.20
2010,06,18,05,32,11.20
2010,06,18,05,33,11.20
2010,06,18,05,34,11.20
2010,06,18,05,35,11.20
2010,06,18,05,36,11.20
2010,06,18,05,37,11.20
2010,06,18,05,38,11.20
2010,06,18,05,39,11.20
2010,06,18,05,40,11.20
2010,06,18,05,41,11.20
2010,06,18,05,42,11.20
2010,06,18,05,43,11.20
2010,06,18,05,44,11.20
2010,06,18,05,45,11.20
2010,06,18,05,46,11.20
2010,06,18,05,47,11.20
2010,06,18,05,48,11.20
2010,06,18,05,49,11.20
2010,06,18,05,50,11.20
2010,06,18,05,51,11.20
2010,06,18,05,52,11.30
2010,06,18,05,53,11.30
2010,06,18,05,54,11.30
2010,06,18,05,55,11.30
2010,06,18,05,56,11.30
2010,06,18,05,57,11.30
2010,06,18,05,58,11.30
2010,06,18,05,59,11.30
2010,06,18,06,00,11.30
2010,06,18,06,01,11.30
2010,06,18,06,02,11.30
2010,06,18,06,03,11.30
2010,06,18,06,04,11.30
2010,06,18,06,05,11.30
2010,06,18,06,06,11.30
2010,06,18,06,07,11.30
2010,06,18,06,08,11.30
2010,06,18,06,09,11.30
2010,06,18,06,10,11.40
2010,06,18,06,11,11.40
2010,06,18,06,12,11.40
2010,06,18,06,13,11.40
2010,06,18,06,14,11.40
2010,06,18,06,15,11.40
2010,06,18,06,16,11.40
2010,06,18,06,17,11.40
2010,06,18,06,18,11.40
2010,06,18,06,19,11.40
2010,06,18,06,20,11.40
2010,06,18,06,21,11.40
2010,06,18,06,22,11.40
2010,06,18,06,23,11.40
2010,06,18,06,24,11.40
2010,06,18,06,25,11.40
2010,06,18,06,26,11.40
2010,06,18,06,27,11.40
2010,06,18,06,28,11.40
2010,06,18,06,29,11.40
2010,06,18,06,30,11.40
2010,06,18,06,31,11.40
2010,06,18,06,32,11.40
2010,06,18,06,33,11.40
2010,06,18,06,34,11.40
2010,06,18,06,35,11.40
2010,06,18,06,36,11.40
2010,06,18,06,37,11.50
2010,06,18,06,38,11.50
2010,06,18,06,39,11.50
2010,06,18,06,40,11.60
2010,06,18,06,41,11.60
2010,06,18,06,42,11.60
2010,06,18,06,43,11.60
2010,06,18,06,44,11.60
2010,06,18,06,45,11.60
2010,06,18,06,46,11.60
2010,06,18,06,47,11.60
2010,06,18,06,48,11.60
2010,06,18,06,49,11.70
2010,06,18,06,50,11.70
2010,06,18,06,51,11.70
2010,06,18,06,52,11.70
2010,06,18,06,53,11.70
2010,06,18,06,54,11.70
2010,06,18,06,55,11.70
2010,06,18,06,56,11.70
2010,06,18,06,57,11.80
2010,06,18,06,58,11.80
2010,06,18,06,59,11.80
2010,06,18,07,00,11.80
2010,06,18,07,01,11.90
2010,06,18,07,02,11.90
2010,06,18,07,03,11.90
2010,06,18,07,04,11.90
2010,06,18,07,05,11.90
2010,06,18,07,06,11.90
2010,06,18,07,07,11.90
2010,06,18,07,08,11.90
2010,06,18,07,09,11.90
2010,06,18,07,10,11.90
2010,06,18,07,11,11.90
2010,06,18,07,12,11.90
2010,06,18,07,13,11.90
2010,06,18,07,14,11.90
2010,06,18,07,15,11.90
2010,06,18,07,16,11.90
2010,06,18,07,17,12.00
2010,06,18,07,18,12.00
2010,06,18,07,19,12.00
2010,06,18,07,20,12.10
2010,06,18,07,21,12.10
2010,06,18,07,22,12.10
2010,06,18,07,23,12.20
2010,06,18,07,24,12.20
2010,06,18,07,25,12.20
2010,06,18,07,26,12.20
2010,06,18,07,27,12.30
2010,06,18,07,28,12.30
2010,06,18,07,29,12.30
2010,06,18,07,30,12.30
2010,06,18,07,31,12.40
2010,06,18,07,32,12.40
2010,06,18,07,33,12.40
2010,06,18,07,34,12.50
2010,06,18,07,35,12.50
2010,06,18,07,36,12.60
2010,06,18,07,37,12.60
2010,06,18,07,38,12.60
2010,06,18,07,39,12.60
2010,06,18,07,40,12.60
2010,06,18,07,41,12.60
2010,06,18,07,42,12.70
2010,06,18,07,43,12.70
2010,06,18,07,44,12.70
2010,06,18,07,45,12.70
2010,06,18,07,46,12.70
2010,06,18,07,47,12.80
2010,06,18,07,48,12.80
2010,06,18,07,49,12.80
2010,06,18,07,50,12.80
2010,06,18,07,51,12.80
2010,06,18,07,52,12.80
2010,06,18,07,53,12.80
2010,06,18,07,54,12.80
2010,06,18,07,55,12.80
2010,06,18,07,56,12.80
2010,06,18,07,57,12.90
2010,06,18,07,58,12.90
2010,06,18,07,59,12.90
2010,06,18,08,00,12.90
2010,06,18,08,01,12.90
2010,06,18,08,02,12.90
2010,06,18,08,03,13.00
2010,06,18,08,04,13.00
2010,06,18,08,05,13.00
2010,06,18,08,06,13.00
2010,06,18,08,07,13.00
2010,06,18,08,08,13.00
2010,06,18,08,09,13.00
2010,06,18,08,10,13.10
2010,06,18,08,11,13.10
2010,06,18,08,12,13.10
2010,06,18,08,13,13.10
2010,06,18,08,14,13.10
2010,06,18,08,58,13.40
2010,06,18,08,59,13.40
2010,06,18,09,00,13.40
2010,06,18,09,01,13.40
2010,06,18,09,02,13.40
2010,06,18,09,03,13.40
2010,06,18,09,04,13.50
2010,06,18,09,05,13.50
2010,06,18,09,06,13.50
2010,06,18,09,07,13.50
2010,06,18,09,08,13.60
2010,06,18,09,09,13.60
2010,06,18,09,10,13.60
2010,06,18,09,11,13.60
2010,06,18,09,12,13.60
2010,06,18,09,13,13.60
2010,06,18,09,14,13.60
2010,06,18,09,15,13.50
2010,06,18,09,16,13.50
2010,06,18,09,17,13.50
2010,06,18,09,18,13.60
2010,06,18,09,19,13.60
2010,06,18,09,20,13.60
2010,06,18,09,21,13.60
2010,06,18,09,22,13.60
2010,06,18,09,23,13.60
2010,06,18,09,24,13.60
2010,06,18,09,25,13.60
2010,06,18,09,26,13.60
2010,06,18,09,27,13.60
2010,06,18,09,28,13.60
2010,06,18,09,29,13.60
2010,06,18,09,30,13.50
2010,06,18,09,31,13.50
2010,06,18,09,32,13.50
2010,06,18,09,33,13.40
2010,06,18,09,34,13.40
2010,06,18,09,35,13.40
2010,06,18,09,36,13.40
2010,06,18,09,37,13.40
2010,06,18,09,38,13.40
2010,06,18,09,39,13.40
2010,06,18,09,40,13.40
2010,06,18,09,41,13.50
2010,06,18,09,42,13.50
2010,06,18,09,43,13.50
2010,06,18,09,44,13.60
2010,06,18,09,45,13.60
2010,06,18,09,46,13.70
2010,06,18,09,47,13.70
2010,06,18,09,48,13.70
2010,06,18,09,49,13.70
2010,06,18,09,50,13.70
2010,06,18,09,51,13.70
2010,06,18,09,52,13.70
2010,06,18,09,53,13.70
2010,06,18,09,54,13.60
2010,06,18,09,55,13.60
2010,06,18,09,56,13.60
2010,06,18,09,57,13.60
2010,06,18,09,58,13.60
2010,06,18,09,59,13.60
2010,06,18,10,00,13.60
2010,06,18,10,01,13.60
2010,06,18,10,02,13.60
2010,06,18,10,03,13.60
2010,06,18,10,04,13.60
2010,06,18,10,05,13.60
2010,06,18,10,06,13.60
2010,06,18,10,07,13.60
2010,06,18,10,08,13.60
2010,06,18,10,09,13.60
2010,06,18,10,10,13.60
2010,06,18,10,11,13.70
2010,06,18,10,12,13.70
2010,06,18,10,13,13.70
2010,06,18,10,14,13.70
2010,06,18,10,15,13.80
2010,06,18,10,16,13.80
2010,06,18,10,17,13.80
2010,06,18,10,18,13.80
2010,06,18,10,19,13.80
2010,06,18,10,20,13.80
2010,06,18,10,21,13.70
2010,06,18,10,22,13.80
2010,06,18,10,23,13.80
2010,06,18,10,24,13.80
2010,06,18,10,25,13.90
2010,06,18,10,26,13.90
2010,06,18,10,27,13.90
2010,06,18,10,28,14.00
2010,06,18,10,29,14.00
2010,06,18,10,30,14.00
2010,06,18,10,31,14.00
2010,06,18,10,32,14.00
2010,06,18,10,33,14.00
2010,06,18,10,34,13.90
2010,06,18,10,35,13.90
2010,06,18,10,36,13.90
2010,06,18,10,37,13.80
2010,06,18,10,38,13.90
2010,06,18,10,39,13.90
2010,06,18,10,40,14.00
2010,06,18,10,41,14.10
2010,06,18,10,42,14.10
2010,06,18,10,43,14.10
2010,06,18,10,44,14.10
2010,06,18,10,45,14.10
2010,06,18,10,46,14.10
2010,06,18,10,47,14.20
2010,06,18,10,48,14.20
2010,06,18,10,49,14.20
2010,06,18,10,50,14.20
2010,06,18,10,51,14.20
2010,06,18,10,52,14.10
2010,06,18,10,53,14.10
2010,06,18,10,54,14.10
2010,06,18,10,55,14.10
2010,06,18,10,56,14.10
2010,06,18,10,57,14.10
2010,06,18,10,58,14.10
2010,06,18,10,59,14.00
2010,06,18,11,00,14.00
2010,06,18,11,01,14.10
2010,06,18,11,02,14.10
2010,06,18,11,03,14.10
2010,06,18,11,04,14.10
2010,06,18,11,05,14.10
2010,06,18,11,06,14.10
2010,06,18,11,07,14.10
2010,06,18,11,08,14.10
2010,06,18,11,09,14.10
2010,06,18,11,10,14.10
2010,06,18,11,11,14.10
2010,06,18,11,12,14.10
2010,06,18,11,13,14.10
2010,06,18,11,14,14.20
2010,06,18,11,15,14.20
2010,06,18,11,16,14.30
2010,06,18,11,17,14.30
2010,06,18,11,18,14.30
2010,06,18,11,19,14.30
2010,06,18,11,20,14.40
2010,06,18,11,21,14.50
2010,06,18,11,22,14.50
2010,06,18,11,23,14.50
2010,06,18,11,24,14.40
2010,06,18,11,25,14.40
2010,06,18,11,26,14.40
2010,06,18,11,27,14.40
2010,06,18,11,28,14.30
2010,06,18,11,29,14.20
2010,06,18,11,30,14.20
2010,06,18,11,31,14.20
2010,06,18,11,32,14.20
2010,06,18,11,33,14.30
2010,06,18,11,34,14.40
2010,06,18,11,35,14.40
2010,06,18,11,36,14.50
2010,06,18,11,37,14.60
2010,06,18,11,38,14.50
2010,06,18,11,39,14.50
2010,06,18,11,40,14.50
2010,06,18,11,41,14.40
2010,06,18,11,42,14.40
2010,06,18,11,43,14.50
2010,06,18,11,44,14.50
2010,06,18,11,45,14.40
2010,06,18,11,46,14.40
2010,06,18,11,47,14.40
2010,06,18,11,48,14.40
2010,06,18,11,49,14.30
2010,06,18,11,50,14.30
2010,06,18,11,51,14.30
2010,06,18,11,52,14.40
2010,06,18,11,53,14.40
2010,06,18,11,54,14.40
2010,06,18,11,55,14.40
2010,06,18,11,56,14.40
2010,06,18,11,57,14.40
2010,06,18,11,58,14.40
2010,06,18,11,59,14.40
2010,06,18,12,00,14.30
2010,06,18,12,01,14.20
2010,06,18,12,02,14.20
2010,06,18,12,03,14.20
2010,06,18,12,04,14.10
2010,06,18,12,05,14.10
2010,06,18,12,06,14.10
2010,06,18,12,07,14.10
2010,06,18,12,08,14.10
2010,06,18,12,09,14.10
2010,06,18,12,10,14.10
2010,06,18,12,11,14.20
2010,06,18,12,12,14.20
2010,06,18,12,13,14.20
2010,06,18,12,14,14.20
2010,06,18,12,15,14.20
2010,06,18,12,16,14.20
2010,06,18,12,17,14.30
2010,06,18,12,18,14.40
2010,06,18,12,19,14.50
2010,06,18,12,20,14.60
2010,06,18,12,21,14.60
2010,06,18,12,22,14.60
2010,06,18,12,23,14.60
2010,06,18,12,24,14.50
2010,06,18,12,25,14.40
2010,06,18,12,26,14.30
2010,06,18,12,27,14.30
2010,06,18,12,28,14.30
2010,06,18,12,29,14.30
2010,06,18,12,30,14.40
2010,06,18,12,31,14.30
2010,06,18,12,32,14.30
2010,06,18,12,33,14.20
2010,06,18,12,34,14.20
2010,06,18,12,35,14.20
2010,06,18,12,36,14.30
2010,06,18,12,37,14.30
2010,06,18,12,38,14.40
2010,06,18,12,39,14.50
2010,06,18,12,40,14.60
2010,06,18,12,41,14.60
2010,06,18,12,42,14.60
2010,06,18,12,43,14.70
2010,06,18,12,44,14.70
2010,06,18,12,45,14.60
2010,06,18,12,46,14.50
2010,06,18,12,47,14.40
2010,06,18,12,48,14.30
2010,06,18,12,49,14.30
2010,06,18,12,50,14.40
2010,06,18,12,51,14.50
2010,06,18,12,52,14.50
2010,06,18,12,53,14.60
2010,06,18,12,54,14.60
2010,06,18,12,55,14.60
2010,06,18,12,56,14.60
2010,06,18,12,57,14.60
2010,06,18,12,58,14.60
2010,06,18,12,59,14.60
2010,06,18,13,00,14.60
2010,06,18,13,01,14.70
2010,06,18,13,02,14.70
2010,06,18,13,03,14.70
2010,06,18,13,04,14.80
2010,06,18,13,05,14.90
2010,06,18,13,06,15.00
2010,06,18,13,07,15.00
2010,06,18,13,08,15.00
2010,06,18,13,09,15.00
2010,06,18,13,10,15.00
2010,06,18,13,11,15.00
2010,06,18,13,12,15.00
2010,06,18,13,13,15.00
2010,06,18,13,14,14.90
2010,06,18,13,15,14.90
2010,06,18,13,16,15.00
2010,06,18,13,17,15.00
2010,06,18,13,18,15.00
2010,06,18,13,19,15.00
2010,06,18,13,20,15.00
2010,06,18,13,21,15.00
2010,06,18,13,22,15.00
2010,06,18,13,23,15.00
2010,06,18,13,24,15.10
2010,06,18,13,25,15.20
2010,06,18,13,26,15.20
2010,06,18,13,27,15.30
2010,06,18,13,28,15.30
2010,06,18,13,29,15.40
2010,06,18,13,30,15.50
2010,06,18,13,31,15.50
2010,06,18,13,32,15.50
2010,06,18,13,33,15.50
2010,06,18,13,34,15.50
2010,06,18,13,35,15.60
2010,06,18,13,36,15.50
2010,06,18,13,37,15.50
2010,06,18,13,38,15.50
2010,06,18,13,39,15.40
2010,06,18,13,40,15.40
2010,06,18,13,41,15.30
2010,06,18,13,42,15.40
2010,06,18,13,43,15.40
2010,06,18,13,44,15.40
2010,06,18,13,45,15.40
2010,06,18,13,46,15.40
2010,06,18,13,47,15.40
2010,06,18,13,48,15.40
2010,06,18,13,49,15.40
2010,06,18,13,50,15.40
2010,06,18,13,51,15.40
2010,06,18,13,52,15.30
2010,06,18,13,53,15.30
2010,06,18,13,54,15.30
2010,06,18,13,55,15.20
2010,06,18,13,56,15.20
2010,06,18,13,57,15.30
2010,06,18,13,58,15.40
2010,06,18,13,59,15.40
2010,06,18,14,00,15.50
2010,06,18,14,01,15.60
2010,06,18,14,02,15.60
2010,06,18,14,03,15.60
2010,06,18,14,04,15.50
2010,06,18,14,05,15.40
2010,06,18,14,06,15.40
2010,06,18,14,07,15.50
2010,06,18,14,08,15.50
2010,06,18,14,09,15.40
2010,06,18,14,10,15.40
2010,06,18,14,11,15.50
2010,06,18,14,12,15.50
2010,06,18,14,13,15.50
2010,06,18,14,14,15.50
2010,06,18,14,15,15.40
2010,06,18,14,16,15.40
2010,06,18,14,17,15.40
2010,06,18,14,18,15.30
2010,06,18,14,19,15.30
2010,06,18,14,20,15.30
2010,06,18,14,21,15.30
2010,06,18,14,22,15.30
2010,06,18,14,23,15.30
2010,06,18,14,24,15.40
2010,06,18,14,25,15.50
2010,06,18,14,26,15.60
2010,06,18,14,27,15.60
2010,06,18,14,28,15.70
2010,06,18,14,29,15.70
2010,06,18,14,30,15.70
2010,06,18,14,31,15.80
2010,06,18,14,32,15.80
2010,06,18,14,33,15.80
2010,06,18,14,34,15.80
2010,06,18,14,35,15.80
2010,06,18,14,36,15.70
2010,06,18,14,37,15.70
2010,06,18,14,38,15.60
2010,06,18,14,39,15.60
2010,06,18,14,40,15.70
2010,06,18,14,41,15.70
2010,06,18,14,42,15.80
2010,06,18,14,43,15.90
2010,06,18,14,44,16.00
2010,06,18,14,45,16.10
2010,06,18,14,46,16.00
2010,06,18,14,47,16.00
2010,06,18,14,48,15.90
2010,06,18,14,49,16.00
2010,06,18,14,50,16.00
2010,06,18,14,51,16.10
2010,06,18,14,52,16.10
2010,06,18,14,53,16.10
2010,06,18,14,54,16.20
2010,06,18,14,55,16.20
2010,06,18,14,56,16.20
2010,06,18,14,57,16.10
2010,06,18,14,58,16.20
2010,06,18,14,59,16.30
2010,06,18,15,00,16.30
2010,06,18,15,01,16.40
2010,06,18,15,02,16.50
2010,06,18,15,03,16.60
2010,06,18,15,04,16.50
2010,06,18,15,05,16.50
2010,06,18,15,06,16.40
2010,06,18,15,07,16.40
2010,06,18,15,08,16.40
2010,06,18,15,09,16.40
2010,06,18,15,10,16.40
2010,06,18,15,11,16.50
2010,06,18,15,12,16.50
2010,06,18,15,13,16.60
2010,06,18,15,14,16.50
2010,06,18,15,15,16.60
2010,06,18,15,16,16.60
2010,06,18,15,17,16.60
2010,06,18,15,18,16.60
2010,06,18,15,19,16.60
2010,06,18,15,20,16.70
2010,06,18,15,21,16.70
2010,06,18,15,22,16.70
2010,06,18,15,23,16.70
2010,06,18,15,24,16.60
2010,06,18,15,25,16.50
2010,06,18,15,26,16.40
2010,06,18,15,27,16.40
2010,06,18,15,28,16.40
2010,06,18,15,29,16.50
2010,06,18,15,30,16.50
2010,06,18,15,31,16.40
2010,06,18,15,32,16.40
2010,06,18,15,33,16.40
2010,06,18,15,34,16.50
2010,06,18,15,35,16.50
2010,06,18,15,36,16.60
2010,06,18,15,37,16.50
2010,06,18,15,38,16.50
2010,06,18,15,39,16.50
2010,06,18,15,40,16.50
2010,06,18,15,41,16.60
2010,06,18,15,42,16.70
2010,06,18,15,43,16.70
2010,06,18,15,44,16.60
2010,06,18,15,45,16.60
2010,06,18,15,46,16.60
2010,06,18,15,47,16.60
2010,06,18,15,48,16.70
2010,06,18,15,49,16.70
2010,06,18,15,50,16.80
2010,06,18,15,51,16.80
2010,06,18,15,52,16.70
2010,06,18,15,53,16.70
2010,06,18,15,54,16.70
2010,06,18,15,55,16.80
2010,06,18,15,56,16.90
2010,06,18,15,57,17.00
2010,06,18,15,58,16.90
2010,06,18,15,59,16.90
2010,06,18,16,00,16.90
2010,06,18,16,01,16.90
2010,06,18,16,02,16.90
2010,06,18,16,03,17.00
2010,06,18,16,04,17.00
2010,06,18,16,05,17.10
2010,06,18,16,06,17.20
2010,06,18,16,07,17.30
2010,06,18,16,08,17.30
2010,06,18,16,09,17.40
2010,06,18,16,10,17.40
2010,06,18,16,11,17.30
2010,06,18,16,12,17.30
2010,06,18,16,13,17.30
2010,06,18,16,14,17.30
2010,06,18,16,15,17.30
2010,06,18,16,16,17.20
2010,06,18,16,17,17.20
2010,06,18,16,18,17.10
2010,06,18,16,19,17.10
2010,06,18,16,20,17.10
2010,06,18,16,21,17.10
2010,06,18,16,22,17.10
2010,06,18,16,23,17.10
2010,06,18,16,24,17.10
2010,06,18,16,25,17.10
2010,06,18,16,26,17.00
2010,06,18,16,27,17.00
2010,06,18,16,28,17.00
2010,06,18,16,29,17.00
2010,06,18,16,30,17.00
2010,06,18,16,31,17.00
2010,06,18,16,32,17.10
2010,06,18,16,33,17.10
2010,06,18,16,34,17.10
2010,06,18,16,35,17.10
2010,06,18,16,36,17.10
2010,06,18,16,37,17.10
2010,06,18,16,38,17.20
2010,06,18,16,39,17.30
2010,06,18,16,40,17.30
2010,06,18,16,41,17.30
2010,06,18,16,42,17.30
2010,06,18,16,43,17.30
2010,06,18,16,44,17.40
2010,06,18,16,45,17.40
2010,06,18,16,46,17.50
2010,06,18,16,47,17.60
2010,06,18,16,48,17.70
2010,06,18,16,49,17.70
2010,06,18,16,50,17.70
2010,06,18,16,51,17.70
2010,06,18,16,52,17.70
2010,06,18,16,53,17.70
2010,06,18,16,54,17.70
2010,06,18,16,55,17.60
2010,06,18,16,56,17.60
2010,06,18,16,57,17.60
2010,06,18,16,58,17.60
2010,06,18,16,59,17.70
2010,06,18,17,00,17.80
2010,06,18,17,01,17.90
2010,06,18,17,02,18.00
2010,06,18,17,03,18.00
2010,06,18,17,04,18.00
2010,06,18,17,05,17.90
2010,06,18,17,06,17.90
2010,06,18,17,07,17.90
2010,06,18,17,08,17.90
2010,06,18,17,09,17.90
2010,06,18,17,10,17.90
2010,06,18,17,11,17.90
2010,06,18,17,12,17.90
2010,06,18,17,13,17.80
2010,06,18,17,14,17.80
2010,06,18,17,15,17.80
2010,06,18,17,16,17.80
2010,06,18,17,17,17.80
2010,06,18,17,18,17.80
2010,06,18,17,19,18.00
2010,06,18,17,20,18.00
2010,06,18,17,21,18.20
2010,06,18,17,22,18.20
2010,06,18,17,23,18.30
2010,06,18,17,24,18.20
2010,06,18,17,25,18.20
2010,06,18,17,26,18.20
2010,06,18,17,27,18.20
2010,06,18,17,28,18.10
2010,06,18,17,29,18.00
2010,06,18,17,30,17.90
2010,06,18,17,31,17.90
2010,06,18,17,32,17.80
2010,06,18,17,33,17.80
2010,06,18,17,34,17.80
2010,06,18,17,35,17.80
2010,06,18,17,36,17.80
2010,06,18,17,37,17.70
2010,06,18,17,38,17.70
2010,06,18,17,39,17.70
2010,06,18,17,40,17.70
2010,06,18,17,41,17.70
2010,06,18,17,42,17.70
2010,06,18,17,43,17.70
2010,06,18,17,44,17.70
2010,06,18,17,45,17.70
2010,06,18,17,46,17.70
2010,06,18,17,47,17.70
2010,06,18,17,48,17.70
2010,06,18,17,49,17.70
2010,06,18,17,50,17.70
2010,06,18,17,51,17.70
2010,06,18,17,52,17.70
2010,06,18,17,53,17.70
2010,06,18,17,54,17.70
2010,06,18,17,55,17.70
2010,06,18,17,56,17.70
2010,06,18,17,57,17.80
2010,06,18,17,58,17.80
2010,06,18,17,59,17.80
2010,06,18,18,00,17.80
2010,06,18,18,01,17.80
2010,06,18,18,02,17.80
2010,06,18,18,03,17.80
2010,06,18,18,04,17.80
2010,06,18,18,05,17.90
2010,06,18,18,06,17.90
2010,06,18,18,07,17.90
2010,06,18,18,08,18.00